Time,TemperatureF,DewpointF,PressureIn,WindDirection,WindDirectionDegrees,WindSpeedMPH,WindSpeedGustMPH,Humidity,HourlyPrecipIn,Conditions,Clouds,dailyrainin,SoftwareType,DateUTC
2013-12-09 00:01:00,37.7,23.0,30.15,SSW,196,0.0,0.0,55,0.00,,,0.00,VWS V14.01,2013-12-09 08:01:00,
2013-12-09 00:07:00,37.7,23.5,30.15,SSW,196,0.0,0.0,56,0.00,,,0.00,VWS V14.01,2013-12-09 08:07:00,
2013-12-09 00:12:00,37.6,23.3,30.15,SSW,196,0.0,0.0,56,0.00,,,0.00,VWS V14.01,2013-12-09 08:12:00,
2013-12-09 00:18:00,37.4,23.5,30.15,SSW,196,0.0,0.0,57,0.00,,,0.00,VWS V14.01,2013-12-09 08:18:00,
2013-12-09 00:23:00,37.4,24.0,30.15,SSW,196,0.0,0.0,58,0.00,,,0.00,VWS V14.01,2013-12-09 08:23:00,
2013-12-09 00:29:00,37.4,24.0,30.15,SSW,196,0.0,0.0,58,0.00,,,0.00,VWS V14.01,2013-12-09 08:29:00,
2013-12-09 00:34:00,37.2,24.2,30.15,SSW,196,0.0,0.0,59,0.00,,,0.00,VWS V14.01,2013-12-09 08:34:00,
2013-12-09 00:40:00,37.2,24.2,30.15,SSW,196,0.0,0.0,59,0.00,,CLR,0.00,VWS V14.01,2013-12-09 08:40:00,
2013-12-09 00:46:00,37.0,24.0,30.15,SSW,196,0.0,0.0,59,0.00,,CLR,0.00,VWS V14.01,2013-12-09 08:46:00,
2013-12-09 00:51:00,36.8,23.9,30.15,SSW,196,0.0,0.0,59,0.00,,CLR,0.00,VWS V14.01,2013-12-09 08:51:00,
2013-12-09 00:57:00,36.7,23.7,30.15,SSW,196,0.0,0.0,59,0.00,,CLR,0.00,VWS V14.01,2013-12-09 08:57:00,
2013-12-09 01:02:00,36.5,23.5,30.15,SSW,196,0.0,0.0,59,0.00,,CLR,0.00,VWS V14.01,2013-12-09 09:02:00,
2013-12-09 01:08:00,36.5,23.9,30.15,SSW,196,0.0,0.0,60,0.00,,CLR,0.00,VWS V14.01,2013-12-09 09:08:00,
2013-12-09 01:11:00,36.5,23.9,30.15,SSW,196,0.0,0.0,60,0.00,,CLR,0.00,VWS V14.01,2013-12-09 09:11:00,
2013-12-09 01:16:00,36.3,23.8,30.15,SSW,196,0.0,0.0,60,0.00,,CLR,0.00,VWS V14.01,2013-12-09 09:16:00,
2013-12-09 01:21:00,36.1,23.6,30.15,SSW,196,0.0,0.0,60,0.00,,CLR,0.00,VWS V14.01,2013-12-09 09:21:00,
2013-12-09 01:26:00,36.1,23.6,30.15,SSW,196,0.0,0.0,60,0.00,,CLR,0.00,VWS V14.01,2013-12-09 09:26:00,
2013-12-09 01:32:00,36.3,23.8,30.15,SSW,196,0.0,0.0,60,0.00,,CLR,0.00,VWS V14.01,2013-12-09 09:32:00,
2013-12-09 01:38:00,36.3,24.1,30.15,SSW,196,0.0,0.0,61,0.00,,CLR,0.00,VWS V14.01,2013-12-09 09:38:00,
2013-12-09 01:43:00,36.1,24.0,30.15,SSW,196,0.0,0.0,61,0.00,,CLR,0.00,VWS V14.01,2013-12-09 09:43:00,
2013-12-09 01:49:00,35.9,23.8,30.15,SSW,196,0.0,0.0,61,0.00,,CLR,0.00,VWS V14.01,2013-12-09 09:49:00,
2013-12-09 01:54:00,35.8,23.6,30.15,SSW,196,0.0,0.0,61,0.00,,CLR,0.00,VWS V14.01,2013-12-09 09:54:00,
2013-12-09 01:59:00,35.6,23.5,30.15,SSW,196,0.0,0.0,61,0.00,,CLR,0.00,VWS V14.01,2013-12-09 09:59:00,
2013-12-09 02:04:00,35.6,23.5,30.15,SSW,196,0.0,0.0,61,0.00,,CLR,0.00,VWS V14.01,2013-12-09 10:04:00,
2013-12-09 02:10:00,35.6,23.9,30.15,SSW,196,0.0,0.0,62,0.00,,CLR,0.00,VWS V14.01,2013-12-09 10:10:00,
2013-12-09 02:15:00,35.9,24.6,30.15,SSW,196,0.0,0.0,63,0.00,,CLR,0.00,VWS V14.01,2013-12-09 10:15:00,
2013-12-09 02:21:00,35.8,25.2,30.15,SSW,196,0.0,0.0,65,0.00,,CLR,0.00,VWS V14.01,2013-12-09 10:21:00,
2013-12-09 02:26:00,35.6,25.0,30.15,SSW,196,0.0,0.0,65,0.00,,CLR,0.00,VWS V14.01,2013-12-09 10:26:00,
2013-12-09 02:32:00,35.4,25.2,30.15,SSW,196,0.0,0.0,66,0.00,,CLR,0.00,VWS V14.01,2013-12-09 10:32:00,
2013-12-09 02:37:00,35.4,25.5,30.15,SSW,196,0.0,0.0,67,0.00,,CLR,0.00,VWS V14.01,2013-12-09 10:37:00,
2013-12-09 02:42:00,35.6,26.1,30.15,SSW,196,0.0,0.0,68,0.00,,CLR,0.00,VWS V14.01,2013-12-09 10:42:00,
2013-12-09 02:48:00,35.2,26.1,30.15,SSW,196,0.0,0.0,69,0.00,,CLR,0.00,VWS V14.01,2013-12-09 10:48:00,
2013-12-09 02:53:00,35.0,26.3,30.15,SSW,196,0.0,0.0,70,0.00,,CLR,0.00,VWS V14.01,2013-12-09 10:53:00,
2013-12-09 02:58:00,34.9,25.7,30.15,SSW,196,0.0,0.0,69,0.00,,CLR,0.00,VWS V14.01,2013-12-09 10:58:00,
2013-12-09 03:03:00,34.9,26.1,30.15,SSW,196,0.0,0.0,70,0.00,,CLR,0.00,VWS V14.01,2013-12-09 11:03:00,
2013-12-09 03:07:00,34.9,26.1,30.15,SSW,196,0.0,0.0,70,0.00,,CLR,0.00,VWS V14.01,2013-12-09 11:07:00,
2013-12-09 03:13:00,34.9,26.4,30.15,SSW,196,0.0,0.0,71,0.00,,CLR,0.00,VWS V14.01,2013-12-09 11:13:00,
2013-12-09 03:18:00,34.9,26.8,30.15,SSW,196,0.0,0.0,72,0.00,,CLR,0.00,VWS V14.01,2013-12-09 11:18:00,
2013-12-09 03:24:00,34.9,26.8,30.15,SSW,196,0.0,0.0,72,0.00,,CLR,0.00,VWS V14.01,2013-12-09 11:24:00,
2013-12-09 03:29:00,34.7,26.6,30.15,SSW,196,0.0,0.0,72,0.00,,CLR,0.00,VWS V14.01,2013-12-09 11:29:00,
2013-12-09 03:35:00,34.7,26.6,30.15,SSW,196,0.0,0.0,72,0.00,,CLR,0.00,VWS V14.01,2013-12-09 11:35:00,
2013-12-09 03:41:00,34.5,26.8,30.15,SSW,196,0.0,0.0,73,0.00,,CLR,0.00,VWS V14.01,2013-12-09 11:41:00,
2013-12-09 03:46:00,34.5,26.8,30.15,SSW,196,0.0,0.0,73,0.00,,CLR,0.00,VWS V14.01,2013-12-09 11:46:00,
2013-12-09 03:52:00,34.3,26.6,30.15,SSW,196,0.0,0.0,73,0.00,,CLR,0.00,VWS V14.01,2013-12-09 11:52:00,
2013-12-09 03:57:00,34.3,26.6,30.15,SSW,196,0.0,0.0,73,0.00,,CLR,0.00,VWS V14.01,2013-12-09 11:57:00,
2013-12-09 04:03:00,34.5,26.8,30.15,SW,222,2.2,2.7,73,0.00,,CLR,0.00,VWS V14.01,2013-12-09 12:03:00,
2013-12-09 04:09:00,34.5,26.8,30.15,SW,222,0.0,0.0,73,0.00,,CLR,0.00,VWS V14.01,2013-12-09 12:09:00,
2013-12-09 04:14:00,34.3,26.6,30.15,SW,222,2.7,2.7,73,0.00,,CLR,0.00,VWS V14.01,2013-12-09 12:14:00,
2013-12-09 04:19:00,34.7,27.3,30.15,SW,222,0.0,0.0,74,0.00,,CLR,0.00,VWS V14.01,2013-12-09 12:19:00,
2013-12-09 04:25:00,34.9,27.4,30.15,SW,222,0.0,0.0,74,0.00,,CLR,0.00,VWS V14.01,2013-12-09 12:25:00,
2013-12-09 04:31:00,34.9,27.4,30.15,SW,222,0.0,0.0,74,0.00,,CLR,0.00,VWS V14.01,2013-12-09 12:31:00,
2013-12-09 04:36:00,34.9,27.8,30.15,SW,222,0.0,0.0,75,0.00,,CLR,0.00,VWS V14.01,2013-12-09 12:36:00,
2013-12-09 04:41:00,34.9,28.1,30.15,SW,223,0.0,0.0,76,0.00,,CLR,0.00,VWS V14.01,2013-12-09 12:41:00,
2013-12-09 04:47:00,34.7,27.9,30.15,SW,223,0.0,0.0,76,0.00,,CLR,0.00,VWS V14.01,2013-12-09 12:47:00,
2013-12-09 04:52:00,34.7,27.9,30.15,SW,223,0.0,0.0,76,0.00,,CLR,0.00,VWS V14.01,2013-12-09 12:52:00,
2013-12-09 04:57:00,34.5,27.7,30.15,SW,223,0.0,0.0,76,0.00,,CLR,0.00,VWS V14.01,2013-12-09 12:57:00,
2013-12-09 05:02:00,34.7,27.9,30.15,SW,223,0.0,0.0,76,0.00,,CLR,0.00,VWS V14.01,2013-12-09 13:02:00,
2013-12-09 05:08:00,34.9,28.4,30.15,SW,223,3.1,3.1,77,0.00,,CLR,0.00,VWS V14.01,2013-12-09 13:08:00,
2013-12-09 05:13:00,34.7,28.2,30.15,SW,223,0.0,0.0,77,0.00,,CLR,0.00,VWS V14.01,2013-12-09 13:13:00,
2013-12-09 05:19:00,34.7,28.2,30.18,SW,223,0.0,0.0,77,0.00,,CLR,0.00,VWS V14.01,2013-12-09 13:19:00,
2013-12-09 05:24:00,34.5,28.0,30.18,SW,223,0.0,0.0,77,0.00,,CLR,0.00,VWS V14.01,2013-12-09 13:24:00,
2013-12-09 05:29:00,34.1,27.7,30.18,SW,223,2.2,2.7,77,0.00,,CLR,0.00,VWS V14.01,2013-12-09 13:29:00,
2013-12-09 05:34:00,34.1,27.7,30.18,SW,223,0.0,0.0,77,0.00,,CLR,0.00,VWS V14.01,2013-12-09 13:34:00,
2013-12-09 05:40:00,34.0,27.5,30.18,SW,223,0.0,0.0,77,0.00,,CLR,0.00,VWS V14.01,2013-12-09 13:40:00,
2013-12-09 05:45:00,33.8,27.4,30.18,SW,223,0.0,0.0,77,0.00,,CLR,0.00,VWS V14.01,2013-12-09 13:45:00,
2013-12-09 05:51:00,33.8,27.4,30.18,SW,223,2.7,3.1,77,0.00,,CLR,0.00,VWS V14.01,2013-12-09 13:51:00,
2013-12-09 05:57:00,33.8,27.4,30.18,SW,223,0.0,0.0,77,0.00,,CLR,0.00,VWS V14.01,2013-12-09 13:57:00,
2013-12-09 06:02:00,33.6,27.2,30.18,SW,223,0.0,0.0,77,0.00,,CLR,0.00,VWS V14.01,2013-12-09 14:02:00,
2013-12-09 06:08:00,33.6,27.2,30.18,SW,223,0.0,0.0,77,0.00,,CLR,0.00,VWS V14.01,2013-12-09 14:08:00,
2013-12-09 06:13:00,33.6,27.2,30.18,SW,223,0.0,0.0,77,0.00,,CLR,0.00,VWS V14.01,2013-12-09 14:13:00,
2013-12-09 06:19:00,33.4,27.0,30.18,SW,223,0.0,0.0,77,0.00,,CLR,0.00,VWS V14.01,2013-12-09 14:19:00,
2013-12-09 06:24:00,33.4,27.0,30.18,SW,223,0.0,0.0,77,0.00,,CLR,0.00,VWS V14.01,2013-12-09 14:24:00,
2013-12-09 06:30:00,33.2,26.8,30.18,SW,223,0.0,0.0,77,0.00,,CLR,0.00,VWS V14.01,2013-12-09 14:30:00,
2013-12-09 06:35:00,33.1,26.6,30.18,SW,223,0.0,0.0,77,0.00,,CLR,0.00,VWS V14.01,2013-12-09 14:35:00,
2013-12-09 06:40:00,33.1,26.6,30.18,SW,223,0.0,0.0,77,0.00,,CLR,0.00,VWS V14.01,2013-12-09 14:40:00,
2013-12-09 06:46:00,32.9,26.5,30.18,SW,223,2.2,2.2,77,0.00,,CLR,0.00,VWS V14.01,2013-12-09 14:46:00,
2013-12-09 06:51:00,33.2,26.8,30.18,NW,320,0.0,2.7,77,0.00,,CLR,0.00,VWS V14.01,2013-12-09 14:51:00,
2013-12-09 06:57:00,33.2,26.8,30.18,NW,320,0.0,0.0,77,0.00,,CLR,0.00,VWS V14.01,2013-12-09 14:57:00,
2013-12-09 07:02:00,33.1,26.6,30.21,NW,320,0.0,0.0,77,0.00,,CLR,0.00,VWS V14.01,2013-12-09 15:02:00,
2013-12-09 07:08:00,33.1,26.6,30.21,NW,320,0.0,0.0,77,0.00,,CLR,0.00,VWS V14.01,2013-12-09 15:08:00,
2013-12-09 07:14:00,33.2,26.8,30.21,NW,320,0.0,0.0,77,0.00,,CLR,0.00,VWS V14.01,2013-12-09 15:14:00,
2013-12-09 07:19:00,33.2,26.8,30.21,NW,320,0.0,0.0,77,0.00,,CLR,0.00,VWS V14.01,2013-12-09 15:19:00,
2013-12-09 07:25:00,33.4,27.0,30.21,NW,320,0.0,0.0,77,0.00,,CLR,0.00,VWS V14.01,2013-12-09 15:25:00,
2013-12-09 07:30:00,33.6,27.2,30.21,NW,320,0.0,0.0,77,0.00,,CLR,0.00,VWS V14.01,2013-12-09 15:30:00,
2013-12-09 07:36:00,33.8,27.4,30.21,NW,320,0.0,0.0,77,0.00,,CLR,0.00,VWS V14.01,2013-12-09 15:36:00,
2013-12-09 07:41:00,34.1,27.7,30.21,NW,320,0.0,0.0,77,0.00,,CLR,0.00,VWS V14.01,2013-12-09 15:41:00,
2013-12-09 07:47:00,34.9,28.7,30.21,NW,320,0.0,0.0,78,0.00,,CLR,0.00,VWS V14.01,2013-12-09 15:47:00,
2013-12-09 07:53:00,35.4,29.2,30.21,NNW,339,0.0,0.0,78,0.00,,CLR,0.00,VWS V14.01,2013-12-09 15:53:00,
2013-12-09 07:58:00,36.1,29.9,30.21,NW,313,0.0,0.0,78,0.00,,CLR,0.00,VWS V14.01,2013-12-09 15:58:00,
2013-12-09 08:04:00,36.5,30.3,30.21,NNW,346,0.0,0.0,78,0.00,,CLR,0.00,VWS V14.01,2013-12-09 16:04:00,
2013-12-09 08:09:00,37.4,31.2,30.21,ENE,78,0.0,0.0,78,0.00,,CLR,0.00,VWS V14.01,2013-12-09 16:09:00,
2013-12-09 08:15:00,37.7,31.5,30.24,North,353,0.0,0.0,78,0.00,,CLR,0.00,VWS V14.01,2013-12-09 16:15:00,
2013-12-09 08:21:00,38.5,31.9,30.24,North,353,0.0,0.0,77,0.00,,CLR,0.00,VWS V14.01,2013-12-09 16:21:00,
2013-12-09 08:26:00,39.4,32.4,30.24,NW,322,0.0,2.2,76,0.00,,CLR,0.00,VWS V14.01,2013-12-09 16:26:00,
2013-12-09 08:32:00,40.3,32.7,30.24,NW,325,0.0,0.0,74,0.00,,CLR,0.00,VWS V14.01,2013-12-09 16:32:00,
2013-12-09 08:38:00,41.2,32.8,30.24,NW,324,0.0,0.0,72,0.00,,CLR,0.00,VWS V14.01,2013-12-09 16:38:00,
2013-12-09 08:43:00,41.3,30.9,30.24,West,273,0.0,0.0,66,0.00,,CLR,0.00,VWS V14.01,2013-12-09 16:43:00,
2013-12-09 08:49:00,42.8,29.5,30.24,West,273,0.0,0.0,59,0.00,,CLR,0.00,VWS V14.01,2013-12-09 16:49:00,
2013-12-09 08:54:00,43.3,27.8,30.24,West,260,0.0,0.0,54,0.00,,CLR,0.00,VWS V14.01,2013-12-09 16:54:00,
2013-12-09 09:00:00,44.2,22.0,30.24,West,262,2.7,3.6,41,0.00,,CLR,0.00,VWS V14.01,2013-12-09 17:00:00,
2013-12-09 09:06:00,45.1,21.0,30.24,SW,224,0.0,0.0,38,0.00,,CLR,0.00,VWS V14.01,2013-12-09 17:06:00,
2013-12-09 09:11:00,46.0,22.5,30.24,SSW,203,0.0,2.2,39,0.00,,CLR,0.00,VWS V14.01,2013-12-09 17:11:00,
2013-12-09 09:16:00,46.9,22.0,30.24,West,272,2.7,4.0,37,0.00,,CLR,0.00,VWS V14.01,2013-12-09 17:16:00,
2013-12-09 09:21:00,47.6,22.0,30.24,NW,310,0.0,2.7,36,0.00,,CLR,0.00,VWS V14.01,2013-12-09 17:21:00,
2013-12-09 09:26:00,47.8,19.4,30.24,West,261,5.4,5.4,32,0.00,,CLR,0.00,VWS V14.01,2013-12-09 17:26:00,
2013-12-09 09:32:00,48.9,20.4,30.24,West,269,3.1,4.0,32,0.00,,CLR,0.00,VWS V14.01,2013-12-09 17:32:00,
2013-12-09 09:38:00,50.0,20.6,30.24,South,188,2.7,3.1,31,0.00,,CLR,0.00,VWS V14.01,2013-12-09 17:38:00,
2013-12-09 09:43:00,50.9,19.0,30.24,WNW,293,2.2,4.0,28,0.00,,CLR,0.00,VWS V14.01,2013-12-09 17:43:00,
2013-12-09 09:48:00,51.6,18.7,30.24,West,272,4.0,4.9,27,0.00,,CLR,0.00,VWS V14.01,2013-12-09 17:48:00,
2013-12-09 09:53:00,52.1,19.2,30.24,SW,229,2.7,3.1,27,0.00,,CLR,0.00,VWS V14.01,2013-12-09 17:53:00,
2013-12-09 09:58:00,52.7,18.8,30.24,NW,307,0.0,4.0,26,0.00,,CLR,0.00,VWS V14.01,2013-12-09 17:58:00,
2013-12-09 10:03:00,53.8,15.8,30.24,North,357,0.0,4.9,22,0.00,,CLR,0.00,VWS V14.01,2013-12-09 18:03:00,
2013-12-09 10:09:00,54.8,10.9,30.24,NE,56,0.0,3.6,17,0.00,,CLR,0.00,VWS V14.01,2013-12-09 18:09:00,
2013-12-09 10:14:00,55.9,7.4,30.24,North,353,5.8,5.8,14,0.00,,CLR,0.00,VWS V14.01,2013-12-09 18:14:00,
2013-12-09 10:20:00,56.6,8.0,30.24,NNE,29,2.7,4.0,14,0.00,,CLR,0.00,VWS V14.01,2013-12-09 18:20:00,
2013-12-09 10:25:00,57.5,5.3,30.24,North,11,5.4,5.8,12,0.00,,CLR,0.00,VWS V14.01,2013-12-09 18:25:00,
2013-12-09 10:31:00,58.1,5.8,30.24,North,357,4.0,8.1,12,0.00,,CLR,0.00,VWS V14.01,2013-12-09 18:31:00,
2013-12-09 10:37:00,58.1,5.8,30.24,North,0,3.1,5.4,12,0.00,,CLR,0.00,VWS V14.01,2013-12-09 18:37:00,
2013-12-09 10:42:00,58.1,5.8,30.24,North,3,8.3,8.3,12,0.00,,CLR,0.00,VWS V14.01,2013-12-09 18:42:00,
2013-12-09 10:48:00,58.1,5.8,30.24,ENE,68,8.3,8.3,12,0.00,,CLR,0.00,VWS V14.01,2013-12-09 18:48:00,
2013-12-09 10:53:00,58.6,6.2,30.24,North,3,6.3,6.3,12,0.00,,CLR,0.00,VWS V14.01,2013-12-09 18:53:00,
2013-12-09 10:58:00,58.4,6.0,30.24,NNW,341,8.7,8.7,12,0.00,,CLR,0.00,VWS V14.01,2013-12-09 18:58:00,
2013-12-09 11:03:00,58.8,4.4,30.21,ENE,62,5.8,5.8,11,0.00,,CLR,0.00,VWS V14.01,2013-12-09 19:03:00,
2013-12-09 11:09:00,60.2,5.5,30.21,ENE,69,2.2,6.3,11,0.00,,CLR,0.00,VWS V14.01,2013-12-09 19:09:00,
2013-12-09 11:14:00,61.0,6.1,30.21,SE,125,9.6,9.6,11,0.00,,CLR,0.00,VWS V14.01,2013-12-09 19:14:00,
2013-12-09 11:20:00,61.5,6.5,30.21,ENE,77,12.3,12.3,11,0.00,,CLR,0.00,VWS V14.01,2013-12-09 19:20:00,
2013-12-09 11:25:00,61.1,6.2,30.21,SE,124,5.8,10.5,11,0.00,,CLR,0.00,VWS V14.01,2013-12-09 19:25:00,
2013-12-09 11:31:00,59.3,4.8,30.21,East,87,8.1,11.0,11,0.00,,CLR,0.00,VWS V14.01,2013-12-09 19:31:00,
2013-12-09 11:36:00,60.4,5.7,30.21,East,89,5.4,11.4,11,0.00,,CLR,0.00,VWS V14.01,2013-12-09 19:36:00,
2013-12-09 11:41:00,61.5,6.5,30.21,ENE,61,2.7,5.4,11,0.00,,CLR,0.00,VWS V14.01,2013-12-09 19:41:00,
2013-12-09 11:47:00,62.0,6.9,30.21,ESE,123,8.1,10.1,11,0.00,,CLR,0.00,VWS V14.01,2013-12-09 19:47:00,
2013-12-09 11:52:00,61.9,6.8,30.21,NNE,28,8.1,8.1,11,0.00,,CLR,0.00,VWS V14.01,2013-12-09 19:52:00,
2013-12-09 11:57:00,62.2,7.1,30.21,NNE,15,8.3,10.5,11,0.00,,CLR,0.00,VWS V14.01,2013-12-09 19:57:00,
2013-12-09 12:02:00,62.8,5.4,30.18,NNE,23,4.9,8.1,10,0.00,,CLR,0.00,VWS V14.01,2013-12-09 20:02:00,
2013-12-09 12:07:00,63.1,5.7,30.18,NNE,22,5.4,8.1,10,0.00,,CLR,0.00,VWS V14.01,2013-12-09 20:07:00,
2013-12-09 12:13:00,63.1,5.7,30.18,North,5,5.4,8.1,10,0.00,,CLR,0.00,VWS V14.01,2013-12-09 20:13:00,
2013-12-09 12:19:00,63.8,6.2,30.18,NNE,12,7.2,7.2,10,0.00,,CLR,0.00,VWS V14.01,2013-12-09 20:19:00,
2013-12-09 12:24:00,63.5,6.0,30.18,NNW,343,5.4,6.3,10,0.00,,CLR,0.00,VWS V14.01,2013-12-09 20:24:00,
2013-12-09 12:30:00,63.7,6.1,30.18,North,353,5.8,5.8,10,0.00,,CLR,0.00,VWS V14.01,2013-12-09 20:30:00,
2013-12-09 12:36:00,64.4,6.7,30.18,NE,49,7.2,7.2,10,0.00,,CLR,0.00,VWS V14.01,2013-12-09 20:36:00,
2013-12-09 12:41:00,64.7,6.9,30.18,NE,54,6.3,8.3,10,0.00,,CLR,0.00,VWS V14.01,2013-12-09 20:41:00,
2013-12-09 12:47:00,64.9,7.1,30.18,NNE,28,5.4,6.7,10,0.00,,CLR,0.00,VWS V14.01,2013-12-09 20:47:00,
2013-12-09 12:52:00,65.8,7.8,30.18,NE,47,4.0,4.0,10,0.00,,CLR,0.00,VWS V14.01,2013-12-09 20:52:00,
2013-12-09 12:58:00,66.0,7.9,30.18,SE,131,0.0,3.1,10,0.00,,CLR,0.00,VWS V14.01,2013-12-09 20:58:00,
2013-12-09 13:04:00,64.7,6.9,30.18,SE,145,3.6,3.6,10,0.00,,CLR,0.00,VWS V14.01,2013-12-09 21:04:00,
2013-12-09 13:09:00,64.7,6.9,30.18,East,88,0.0,5.4,10,0.00,,CLR,0.00,VWS V14.01,2013-12-09 21:09:00,
2013-12-09 13:15:00,64.4,6.7,30.18,East,83,3.6,4.0,10,0.00,,CLR,0.00,VWS V14.01,2013-12-09 21:15:00,
2013-12-09 13:20:00,66.0,7.9,30.18,NNE,16,0.0,0.0,10,0.00,,CLR,0.00,VWS V14.01,2013-12-09 21:20:00,
2013-12-09 13:25:00,66.9,8.6,30.18,NE,55,4.9,6.3,10,0.00,,CLR,0.00,VWS V14.01,2013-12-09 21:25:00,
2013-12-09 13:30:00,67.3,8.9,30.18,NNW,346,3.1,6.3,10,0.00,,CLR,0.00,VWS V14.01,2013-12-09 21:30:00,
2013-12-09 13:35:00,67.3,8.9,30.18,NE,36,5.8,5.8,10,0.00,,CLR,0.00,VWS V14.01,2013-12-09 21:35:00,
2013-12-09 13:40:00,66.9,8.6,30.18,NE,56,10.1,10.1,10,0.00,,CLR,0.00,VWS V14.01,2013-12-09 21:40:00,
2013-12-09 13:46:00,67.1,8.7,30.18,NNE,27,4.0,8.7,10,0.00,,CLR,0.00,VWS V14.01,2013-12-09 21:46:00,
2013-12-09 13:51:00,67.3,8.9,30.18,North,357,2.7,5.4,10,0.00,,CLR,0.00,VWS V14.01,2013-12-09 21:51:00,
2013-12-09 13:57:00,67.3,8.9,30.18,NNE,23,3.1,6.3,10,0.00,,CLR,0.00,VWS V14.01,2013-12-09 21:57:00,
2013-12-09 14:02:00,67.6,9.1,30.18,ENE,62,5.8,5.8,10,0.00,,CLR,0.00,VWS V14.01,2013-12-09 22:02:00,
2013-12-09 14:07:00,67.6,9.1,30.18,NE,44,5.4,6.3,10,0.00,,CLR,0.00,VWS V14.01,2013-12-09 22:07:00,
2013-12-09 14:12:00,66.9,8.6,30.18,North,9,5.4,5.4,10,0.00,,CLR,0.00,VWS V14.01,2013-12-09 22:12:00,
2013-12-09 14:18:00,67.1,8.7,30.18,East,95,5.4,5.4,10,0.00,,CLR,0.00,VWS V14.01,2013-12-09 22:18:00,
2013-12-09 14:23:00,67.1,8.7,30.18,NNE,27,0.0,0.0,10,0.00,,CLR,0.00,VWS V14.01,2013-12-09 22:23:00,
2013-12-09 14:29:00,67.3,8.9,30.18,NNW,337,8.3,8.3,10,0.00,,CLR,0.00,VWS V14.01,2013-12-09 22:29:00,
2013-12-09 14:35:00,66.2,8.0,30.18,ESE,117,0.0,0.0,10,0.00,,CLR,0.00,VWS V14.01,2013-12-09 22:35:00,
2013-12-09 14:40:00,66.4,8.2,30.18,NNE,21,4.0,6.3,10,0.00,,CLR,0.00,VWS V14.01,2013-12-09 22:40:00,
2013-12-09 14:46:00,65.5,7.5,30.18,ENE,74,3.6,6.3,10,0.00,,CLR,0.00,VWS V14.01,2013-12-09 22:46:00,
2013-12-09 14:51:00,64.0,6.4,30.18,ENE,65,8.7,8.7,10,0.00,,CLR,0.00,VWS V14.01,2013-12-09 22:51:00,
2013-12-09 14:57:00,62.8,5.4,30.18,SE,130,6.3,6.3,10,0.00,,CLR,0.00,VWS V14.01,2013-12-09 22:57:00,
2013-12-09 15:03:00,62.6,5.3,30.18,ESE,102,6.3,8.7,10,0.00,,CLR,0.00,VWS V14.01,2013-12-09 23:03:00,
2013-12-09 15:08:00,62.6,5.3,30.18,ESE,115,3.1,5.4,10,0.00,,CLR,0.00,VWS V14.01,2013-12-09 23:08:00,
2013-12-09 15:13:00,62.0,6.9,30.18,East,99,5.4,5.8,11,0.00,,CLR,0.00,VWS V14.01,2013-12-09 23:13:00,
2013-12-09 15:18:00,62.6,5.3,30.18,ESE,108,3.1,3.6,10,0.00,,CLR,0.00,VWS V14.01,2013-12-09 23:18:00,
2013-12-09 15:24:00,62.8,5.4,30.18,NNE,22,5.4,5.4,10,0.00,,CLR,0.00,VWS V14.01,2013-12-09 23:24:00,
2013-12-09 15:29:00,62.4,5.1,30.18,ENE,72,0.0,0.0,10,0.00,,CLR,0.00,VWS V14.01,2013-12-09 23:29:00,
2013-12-09 15:34:00,62.2,7.1,30.18,East,83,3.1,3.6,11,0.00,,CLR,0.00,VWS V14.01,2013-12-09 23:34:00,
2013-12-09 15:39:00,62.0,6.9,30.18,ENE,76,0.0,3.1,11,0.00,,CLR,0.00,VWS V14.01,2013-12-09 23:39:00,
2013-12-09 15:45:00,61.9,6.8,30.18,East,86,4.0,4.9,11,0.00,,CLR,0.00,VWS V14.01,2013-12-09 23:45:00,
2013-12-09 15:50:00,61.1,6.2,30.18,East,93,3.1,3.1,11,0.00,,CLR,0.00,VWS V14.01,2013-12-09 23:50:00,
2013-12-09 15:55:00,61.0,6.1,30.18,East,83,2.7,3.6,11,0.00,,CLR,0.00,VWS V14.01,2013-12-09 23:55:00,
2013-12-09 16:00:00,60.2,5.5,30.21,East,85,0.0,5.4,11,0.00,,CLR,0.00,VWS V14.01,2013-12-10 00:00:00,
2013-12-09 16:06:00,59.5,5.0,30.21,East,81,5.4,5.4,11,0.00,,CLR,0.00,VWS V14.01,2013-12-10 00:06:00,
2013-12-09 16:11:00,59.3,4.8,30.21,ENE,67,3.1,3.6,11,0.00,,SCT160,0.00,VWS V14.01,2013-12-10 00:11:00,
2013-12-09 16:17:00,59.0,4.6,30.21,East,82,0.0,0.0,11,0.00,,SCT160,0.00,VWS V14.01,2013-12-10 00:17:00,
2013-12-09 16:23:00,58.6,6.2,30.21,East,82,3.1,3.1,12,0.00,,SCT160,0.00,VWS V14.01,2013-12-10 00:23:00,
2013-12-09 16:28:00,58.1,5.8,30.21,North,9,4.0,4.9,12,0.00,,SCT160,0.00,VWS V14.01,2013-12-10 00:28:00,
2013-12-09 16:33:00,57.5,5.3,30.21,ESE,104,0.0,4.9,12,0.00,,SCT160,0.00,VWS V14.01,2013-12-10 00:33:00,
2013-12-09 16:39:00,57.2,5.1,30.21,ENE,72,0.0,0.0,12,0.00,,SCT160,0.00,VWS V14.01,2013-12-10 00:39:00,
2013-12-09 16:45:00,56.6,4.6,30.21,NW,321,4.0,4.0,12,0.00,,SCT160,0.00,VWS V14.01,2013-12-10 00:45:00,
2013-12-09 16:50:00,56.1,4.2,30.21,NNW,345,5.4,8.3,12,0.00,,SCT160,0.00,VWS V14.01,2013-12-10 00:50:00,
2013-12-09 16:56:00,55.6,3.8,30.21,NE,34,3.1,3.1,12,0.00,,SCT160,0.00,VWS V14.01,2013-12-10 00:56:00,
2013-12-09 17:01:00,55.4,3.6,30.21,ENE,70,0.0,0.0,12,0.00,,SCT160,0.00,VWS V14.01,2013-12-10 01:01:00,
2013-12-09 17:06:00,55.0,3.3,30.21,ENE,70,0.0,0.0,12,0.00,,SCT160,0.00,VWS V14.01,2013-12-10 01:06:00,
2013-12-09 17:12:00,54.7,3.1,30.21,East,97,0.0,2.7,12,0.00,,SCT160,0.00,VWS V14.01,2013-12-10 01:12:00,
2013-12-09 17:17:00,54.1,2.6,30.21,East,81,2.7,3.6,12,0.00,,SCT160,0.00,VWS V14.01,2013-12-10 01:17:00,
2013-12-09 17:23:00,53.8,2.4,30.21,East,81,3.6,4.9,12,0.00,,SCT160,0.00,VWS V14.01,2013-12-10 01:23:00,
2013-12-09 17:28:00,53.2,3.7,30.21,ENE,58,3.6,5.4,13,0.00,,SCT160,0.00,VWS V14.01,2013-12-10 01:28:00,
2013-12-09 17:34:00,52.7,3.2,30.21,NE,52,4.5,4.5,13,0.00,,SCT160,0.00,VWS V14.01,2013-12-10 01:34:00,
2013-12-09 17:40:00,52.3,3.0,30.21,ENE,58,3.1,5.8,13,0.00,,CLR,0.00,VWS V14.01,2013-12-10 01:40:00,
2013-12-09 17:45:00,52.3,3.0,30.21,ENE,74,4.9,6.3,13,0.00,,CLR,0.00,VWS V14.01,2013-12-10 01:45:00,
2013-12-09 17:51:00,52.3,3.0,30.21,ENE,62,4.9,4.9,13,0.00,,CLR,0.00,VWS V14.01,2013-12-10 01:51:00,
2013-12-09 17:56:00,52.0,2.7,30.21,ENE,66,0.0,3.1,13,0.00,,CLR,0.00,VWS V14.01,2013-12-10 01:56:00,
2013-12-09 18:02:00,52.0,2.7,30.21,East,86,2.2,3.1,13,0.00,,CLR,0.00,VWS V14.01,2013-12-10 02:02:00,
2013-12-09 18:08:00,51.6,2.4,30.21,ENE,75,2.7,4.0,13,0.00,,CLR,0.00,VWS V14.01,2013-12-10 02:08:00,
2013-12-09 18:13:00,51.2,2.1,30.21,East,83,4.9,6.3,13,0.00,,CLR,0.00,VWS V14.01,2013-12-10 02:13:00,
2013-12-09 18:19:00,50.9,1.8,30.21,ENE,70,2.7,4.9,13,0.00,,CLR,0.00,VWS V14.01,2013-12-10 02:19:00,
2013-12-09 18:24:00,50.7,1.7,30.21,ENE,59,4.0,5.8,13,0.00,,CLR,0.00,VWS V14.01,2013-12-10 02:24:00,
2013-12-09 18:30:00,50.5,1.5,30.21,ENE,58,4.9,5.8,13,0.00,,CLR,0.00,VWS V14.01,2013-12-10 02:30:00,
2013-12-09 18:35:00,50.2,1.2,30.21,NE,43,5.4,5.8,13,0.00,,CLR,0.00,VWS V14.01,2013-12-10 02:35:00,
2013-12-09 18:41:00,50.0,1.1,30.21,ENE,73,6.3,6.3,13,0.00,,CLR,0.00,VWS V14.01,2013-12-10 02:41:00,
2013-12-09 18:46:00,49.8,0.9,30.24,NE,55,5.4,5.4,13,0.00,,CLR,0.00,VWS V14.01,2013-12-10 02:46:00,
2013-12-09 18:51:00,49.6,2.4,30.24,ENE,74,3.1,7.6,14,0.00,,CLR,0.00,VWS V14.01,2013-12-10 02:51:00,
2013-12-09 18:56:00,49.6,2.4,30.24,East,89,4.9,6.3,14,0.00,,CLR,0.00,VWS V14.01,2013-12-10 02:56:00,
2013-12-09 19:02:00,49.4,2.2,30.24,ENE,58,3.6,4.0,14,0.00,,CLR,0.00,VWS V14.01,2013-12-10 03:02:00,
2013-12-09 19:08:00,49.1,2.0,30.24,ENE,58,3.6,6.3,14,0.00,,CLR,0.00,VWS V14.01,2013-12-10 03:08:00,
2013-12-09 19:13:00,48.9,1.8,30.24,ENE,71,7.6,7.6,14,0.00,,CLR,0.00,VWS V14.01,2013-12-10 03:13:00,
2013-12-09 19:19:00,48.9,1.8,30.24,ENE,61,4.0,4.0,14,0.00,,CLR,0.00,VWS V14.01,2013-12-10 03:19:00,
2013-12-09 19:24:00,48.9,1.8,30.24,ENE,57,4.9,5.4,14,0.00,,CLR,0.00,VWS V14.01,2013-12-10 03:24:00,
2013-12-09 19:30:00,48.5,1.5,30.24,ENE,57,4.0,6.3,14,0.00,,CLR,0.00,VWS V14.01,2013-12-10 03:30:00,
2013-12-09 19:36:00,48.5,1.5,30.24,ENE,64,2.2,5.8,14,0.00,,CLR,0.00,VWS V14.01,2013-12-10 03:36:00,
2013-12-09 19:41:00,48.2,1.2,30.24,NE,47,5.4,5.4,14,0.00,,CLR,0.00,VWS V14.01,2013-12-10 03:41:00,
2013-12-09 19:47:00,48.0,1.1,30.24,NE,55,6.3,6.7,14,0.00,,CLR,0.00,VWS V14.01,2013-12-10 03:47:00,
2013-12-09 19:52:00,48.0,1.1,30.24,NE,50,4.0,6.3,14,0.00,,CLR,0.00,VWS V14.01,2013-12-10 03:52:00,
2013-12-09 19:58:00,48.0,1.1,30.24,NE,41,2.7,5.4,14,0.00,,CLR,0.00,VWS V14.01,2013-12-10 03:58:00,
2013-12-09 20:03:00,48.2,1.2,30.24,NNE,30,5.8,8.3,14,0.00,,CLR,0.00,VWS V14.01,2013-12-10 04:03:00,
2013-12-09 20:08:00,48.4,1.4,30.24,NE,40,4.0,6.7,14,0.00,,CLR,0.00,VWS V14.01,2013-12-10 04:08:00,
2013-12-09 20:14:00,48.4,1.4,30.24,NE,37,3.6,4.0,14,0.00,,CLR,0.00,VWS V14.01,2013-12-10 04:14:00,
2013-12-09 20:19:00,48.2,1.2,30.24,NE,55,4.9,6.3,14,0.00,,CLR,0.00,VWS V14.01,2013-12-10 04:19:00,
2013-12-09 20:25:00,48.0,1.1,30.24,ENE,64,3.1,5.8,14,0.00,,CLR,0.00,VWS V14.01,2013-12-10 04:25:00,
2013-12-09 20:30:00,47.6,0.8,30.24,NE,36,4.0,4.0,14,0.00,,CLR,0.00,VWS V14.01,2013-12-10 04:30:00,
2013-12-09 20:36:00,47.3,0.5,30.24,NNE,32,0.0,2.7,14,0.00,,CLR,0.00,VWS V14.01,2013-12-10 04:36:00,
2013-12-09 20:41:00,46.7,0.1,30.24,ENE,57,3.1,4.0,14,0.00,,CLR,0.00,VWS V14.01,2013-12-10 04:41:00,
2013-12-09 20:47:00,46.7,0.1,30.24,NNE,23,4.0,5.8,14,0.00,,CLR,0.00,VWS V14.01,2013-12-10 04:47:00,
2013-12-09 20:53:00,46.7,0.1,30.24,NE,37,5.8,5.8,14,0.00,,CLR,0.00,VWS V14.01,2013-12-10 04:53:00,
2013-12-09 20:58:00,47.5,0.6,30.24,NE,51,6.3,10.5,14,0.00,,CLR,0.00,VWS V14.01,2013-12-10 04:58:00,
2013-12-09 21:01:00,47.8,0.9,30.24,East,83,10.5,10.5,14,0.00,,CLR,0.00,VWS V14.01,2013-12-10 05:01:00,
2013-12-09 21:02:00,48.0,1.1,30.24,NE,34,8.1,11.0,14,0.00,,CLR,0.00,VWS V14.01,2013-12-10 05:02:00,
2013-12-09 21:03:00,48.2,1.2,30.24,North,357,3.6,8.1,14,0.00,,CLR,0.00,VWS V14.01,2013-12-10 05:03:00,
2013-12-09 21:04:00,48.2,1.2,30.24,ENE,68,9.6,9.6,14,0.00,,CLR,0.00,VWS V14.01,2013-12-10 05:04:00,
2013-12-09 21:05:00,48.2,1.2,30.24,NNE,23,5.4,9.6,14,0.00,,CLR,0.00,VWS V14.01,2013-12-10 05:05:00,
2013-12-09 21:10:00,48.4,1.4,30.24,NE,49,8.3,10.5,14,0.00,,CLR,0.00,VWS V14.01,2013-12-10 05:10:00,
2013-12-09 21:12:00,48.4,1.4,30.24,NNE,29,8.3,8.3,14,0.00,,CLR,0.00,VWS V14.01,2013-12-10 05:12:00,
2013-12-09 21:18:00,48.5,1.5,30.24,NE,55,6.3,8.3,14,0.00,,CLR,0.00,VWS V14.01,2013-12-10 05:18:00,
2013-12-09 21:23:00,48.7,1.7,30.24,NE,34,5.8,6.7,14,0.00,,CLR,0.00,VWS V14.01,2013-12-10 05:23:00,
2013-12-09 21:29:00,48.4,1.4,30.21,NE,47,10.1,10.1,14,0.00,,CLR,0.00,VWS V14.01,2013-12-10 05:29:00,
2013-12-09 21:35:00,48.5,1.5,30.21,ENE,73,4.0,11.0,14,0.00,,CLR,0.00,VWS V14.01,2013-12-10 05:35:00,
2013-12-09 21:40:00,48.5,1.5,30.21,ENE,75,7.6,10.1,14,0.00,,CLR,0.00,VWS V14.01,2013-12-10 05:40:00,
2013-12-09 21:46:00,48.4,1.4,30.24,ENE,71,4.0,6.3,14,0.00,,CLR,0.00,VWS V14.01,2013-12-10 05:46:00,
2013-12-09 21:52:00,48.0,1.1,30.24,NNE,19,6.3,8.3,14,0.00,,CLR,0.00,VWS V14.01,2013-12-10 05:52:00,
2013-12-09 21:58:00,48.0,1.1,30.24,NE,55,3.1,5.8,14,0.00,,CLR,0.00,VWS V14.01,2013-12-10 05:58:00,
2013-12-09 22:03:00,47.6,0.8,30.24,ENE,64,5.4,5.4,14,0.00,,CLR,0.00,VWS V14.01,2013-12-10 06:03:00,
2013-12-09 22:08:00,47.3,0.5,30.24,ENE,76,4.0,6.3,14,0.00,,CLR,0.00,VWS V14.01,2013-12-10 06:08:00,
2013-12-09 22:13:00,47.3,0.5,30.24,ENE,73,4.9,6.3,14,0.00,,CLR,0.00,VWS V14.01,2013-12-10 06:13:00,
2013-12-09 22:18:00,47.3,0.5,30.24,NE,54,5.4,7.2,14,0.00,,CLR,0.00,VWS V14.01,2013-12-10 06:18:00,
2013-12-09 22:24:00,47.3,0.5,30.24,NE,55,2.7,4.0,14,0.00,,CLR,0.00,VWS V14.01,2013-12-10 06:24:00,
2013-12-09 22:29:00,47.1,0.4,30.24,NNE,15,5.4,6.3,14,0.00,,CLR,0.00,VWS V14.01,2013-12-10 06:29:00,
2013-12-09 22:34:00,47.6,0.8,30.24,North,4,8.1,8.3,14,0.00,,CLR,0.00,VWS V14.01,2013-12-10 06:34:00,
2013-12-09 22:39:00,48.2,1.2,30.24,NNE,25,6.3,8.3,14,0.00,,CLR,0.00,VWS V14.01,2013-12-10 06:39:00,
2013-12-09 22:45:00,48.5,1.5,30.24,NE,40,11.4,11.4,14,0.00,,CLR,0.00,VWS V14.01,2013-12-10 06:45:00,
2013-12-09 22:50:00,48.5,1.5,30.24,North,349,3.1,8.7,14,0.00,,CLR,0.00,VWS V14.01,2013-12-10 06:50:00,
2013-12-09 22:56:00,48.5,1.5,30.24,NNE,19,4.0,10.1,14,0.00,,CLR,0.00,VWS V14.01,2013-12-10 06:56:00,
2013-12-09 23:01:00,48.5,1.5,30.21,North,357,5.8,10.5,14,0.00,,CLR,0.00,VWS V14.01,2013-12-10 07:01:00,
2013-12-09 23:07:00,48.4,1.4,30.21,NNE,33,5.8,7.6,14,0.00,,CLR,0.00,VWS V14.01,2013-12-10 07:07:00,
2013-12-09 23:12:00,48.2,1.2,30.21,North,11,7.6,7.6,14,0.00,,CLR,0.00,VWS V14.01,2013-12-10 07:12:00,
2013-12-09 23:17:00,48.0,1.1,30.21,NNE,28,7.6,7.6,14,0.00,,CLR,0.00,VWS V14.01,2013-12-10 07:17:00,
2013-12-09 23:22:00,47.8,0.9,30.21,NE,53,7.6,8.1,14,0.00,,CLR,0.00,VWS V14.01,2013-12-10 07:22:00,
2013-12-09 23:28:00,47.6,0.8,30.21,NNE,28,3.1,8.1,14,0.00,,CLR,0.00,VWS V14.01,2013-12-10 07:28:00,
2013-12-09 23:33:00,47.5,0.6,30.21,NNE,23,3.6,4.5,14,0.00,,CLR,0.00,VWS V14.01,2013-12-10 07:33:00,
2013-12-09 23:38:00,47.3,0.5,30.21,NE,55,6.3,6.3,14,0.00,,CLR,0.00,VWS V14.01,2013-12-10 07:38:00,
2013-12-09 23:43:00,47.1,0.4,30.21,NNE,27,4.9,6.3,14,0.00,,CLR,0.00,VWS V14.01,2013-12-10 07:43:00,
2013-12-09 23:49:00,47.1,0.4,30.21,North,10,8.1,8.1,14,0.00,,CLR,0.00,VWS V14.01,2013-12-10 07:49:00,
2013-12-09 23:55:00,46.9,0.2,30.21,NNE,18,2.7,4.0,14,0.00,,CLR,0.00,VWS V14.01,2013-12-10 07:55:00,